Regional Weather Roundup
Issued by NWS

Home | Current Version | Previous Version | Text Only | Print | Product List | Glossary On
Versions: 1 2 3 4 5 6 7 8 9 10 11 12 13 14 15 16 17 18 19 20 21 22 23 24 25 26 27 28 29 30 31 32 33 34 35 36 37 38 39 40 41 42 43 44 45 46 47 48 49 50
000
ASUS44 KLIX 310107
RWRLA
LOUISIANA WEATHER ROUNDUP
NATIONAL WEATHER SERVICE NEW ORLEANS LA
800 PM CDT MON MAR 30 2015

NOTE: "FAIR" INDICATES FEW OR NO CLOUDS BELOW 12,000 FEET WITH NO
      SIGNIFICANT WEATHER AND/OR OBSTRUCTIONS TO VISIBILITY.
      SKY/WX - SKY CONDITION AND SIGNIFICANT WEATHER.
      TMP - AIR TEMPERATURE.    DP   - DEWPOINT TEMPERATURE.
      RH  - RELATIVE HUMIDITY.  PRES - PRESSURE.
      HX  - HEAT INDEX.         WCI  - WIND CHILL INDEX.

*  THESE STATIONS ARE NOT NWS OR FAA STATIONS AND ARE NOT UNDER
   NWS QUALITY CONTROL.

LAZ040-048-061>063-065-066-069-310200-
SOUTHEAST LOUISIANA

CITY           SKY/WX    TMP DP  RH WIND       PRES   REMARKS
N.O. AUDUBON     N/A     70  64  82 MISG        N/A
N.O. INTL ARPT PTCLDY    74  59  59 SW10      30.13R
N.O. LAKEFRONT CLEAR     77  61  57 SW12      30.13R
SLIDELL        PTCLDY    74  64  71 SW3       30.12R
BATON ROUGE    CLEAR     74  60  61 SW12      30.12R
BOOTHVILLE     CLEAR     72  66  81 SW10      30.16S
BELLE CHASSE   PTCLDY    69  63  81 SW9       30.13R
BOGALUSA*        N/A     70  59  69 CALM      30.12S
GALLIANO*      CLEAR     72  64  74 SW8       30.16R
NEW ROADS*     FAIR      73  58  59 SW6       30.12R
GONZALES*      FAIR      73  62  68 SW5       30.13S
HAMMOND*       CLEAR     75  59  57 W7        30.14R
HOUMA*         CLEAR     71  64  77 SW5       30.15S
PORT FOURCHON* CLEAR     73  66  78 SW6       30.20R

$$

LAZ041-044-053-054-310200-
SOUTHWEST LOUISIANA

CITY           SKY/WX    TMP DP  RH WIND       PRES   REMARKS
LAKE CHARLES   CLEAR     69  64  84 S5        30.13S
LAFAYETTE      CLEAR     71  60  68 SW8       30.14R
PATTERSON      CLEAR     68  61  77 SW6       30.16R
SALT POINT       N/A     68  64  87 CALM      30.15R
NEW IBERIA     CLEAR     71  61  70 SW6       30.15R
CHENAULT AIRPK NOT AVBL

$$

LAZ027-028-310200-
CENTRAL LOUISIANA

CITY           SKY/WX    TMP DP  RH WIND       PRES   REMARKS
FORT POLK      CLEAR     74  61  63 S8        30.10R
ALEXANDRIA INT CLEAR     74  57  55 S6        30.08R
ALEXANDRIA     PTCLDY    73  58  59 S3        30.10R

$$

LAZ001-002-310200-
NORTHWEST LOUISIANA

CITY           SKY/WX    TMP DP  RH WIND       PRES   REMARKS
SHREVEPORT     MOCLDY    71  63  75 CALM      30.08S
BARKSDALE AFB  CLOUDY    70  62  77 SE5       30.08S
DTN SHREVEPORT CLOUDY    71  61  70 CALM      30.08F

$$

LAZ014-016-310200-
NORTHEAST LOUISIANA

CITY           SKY/WX    TMP DP  RH WIND       PRES   REMARKS
MONROE         CLOUDY    70  63  78 CALM      30.10S
TALLULAH       CLOUDY    71  62  73 NE3       30.10S

$$



USA.gov is the U.S. government's official web portal to all federal, state and local government web resources and services.